This demonstration page uses our WeatherBlox Daily Observations layout. Learn more.

38.89511, -77.03637

Hourly Observations for October 21, 2018

Temp ( °F °C ) Dew Point ( °F °C ) Humidity (%) Winds ( mph kmh ) Pressure ( in mb ) Visibility ( mi km ) Precip ( " mm )
12:52 am 00:52 Cloudy 54 12.2 41 5 62 62 WNW 17 28 29.78 1008 10 16.0934 0 0.0254
1:52 am 01:52 Cloudy 53 11.7 40 4.4 61 61 VRB 7 11 29.78 1008 10 16.0934 0 0
2:52 am 02:52 Cloudy 52 11.1 35 1.7 53 53 WNW 16 26 29.8 1009 10 16.0934 0 0
3:52 am 03:52 Mostly Cloudy 51 10.6 33 0.6 50 50 WNW 23 37 29.82 1010 10 16.0934 0 0
4:52 am 04:52 Partly Cloudy 50 10 33 0.6 52 52 W 17 28 29.85 1011 10 16.0934 0 0
5:52 am 05:52 Mostly Cloudy 49 9.4 35 1.7 59 59 NW 22 35 29.9 1013 10 16.0934 0 0
6:52 am 06:52 Mostly Clear 48 8.9 33 0.6 56 56 NW 21 33 29.96 1015 10 16.0934 0 0
7:52 am 07:52 Partly Cloudy 47 8.3 33 0.6 59 59 NNW 18 30 30.02 1017 10 16.0934 0 0
8:52 am 08:52 Partly Cloudy 49 9.4 31 -0.6 50 50 NNW 20 31 30.06 1018 10 16.0934 0 0
9:52 am 09:52 Partly Cloudy 50 10 29 -1.7 44 44 NNW 18 30 30.1 1019 10 16.0934 0 0
10:52 am 10:52 Mostly Cloudy 52 11.1 29 -1.7 41 41 NNW 23 37 30.12 1020 10 16.0934 0 0
11:52 am 11:52 Mostly Sunny 53 11.7 29 -1.7 40 40 NNW 23 37 30.14 1021 10 16.0934 0 0
12:52 pm 12:52 Mostly Cloudy 53 11.7 31 -0.6 43 43 NNW 16 26 30.14 1021 10 16.0934 0 0
1:52 pm 13:52 Mostly Cloudy 54 12.2 31 -0.6 42 42 WNW 10 17 30.13 1020 10 16.0934 0 0.0254
2:52 pm 14:52 Mostly Cloudy 54 12.2 30 -1.1 40 40 NW 15 24 30.13 1020 10 16.0934 0 0
3:52 pm 15:52 Mostly Cloudy 54 12.2 31 -0.6 42 42 NW 17 28 30.14 1021 10 16.0934 0 0
4:52 pm 16:52 Mostly Cloudy 52 11.1 30 -1.1 43 43 WNW 15 24 30.15 1021 10 16.0934 0 0
5:52 pm 17:52 Mostly Cloudy 51 10.6 30 -1.1 44 44 W 12 19 30.17 1022 10 16.0934 0 0
6:52 pm 18:52 Partly Cloudy 50 10 29 -1.7 44 44 WNW 13 20 30.2 1023 10 16.0934 0 0
7:52 pm 19:52 Mostly Clear 48 8.9 30 -1.1 50 50 WNW 14 22 30.23 1024 10 16.0934 0 0
8:52 pm 20:52 Clear 47 8.3 29 -1.7 50 50 NW 12 19 30.24 1024 10 16.0934 0 0
9:52 pm 21:52 Mostly Clear 46 7.8 29 -1.7 51 51 WNW 9 15 30.26 1025 10 16.0934 0 0
10:52 pm 22:52 Mostly Clear 45 7.2 29 -1.7 54 54 WNW 8 13 30.27 1025 10 16.0934 0 0
11:52 pm 23:52 Mostly Clear 44 6.7 29 -1.7 55 55 W 7 11 30.28 1025 10 16.0934 0 0

Powered by AerisWeather